ASA1450 KLAX-KSFO

Flight info

Callsign ASA1450
Flight time 0h 55m
Altitude 34000
Route SUMMR2 STOKD SERFR SERFR4
Aircraft B739/M-SDE2E3FGHIRWXY/LB1

Departure

Time 2026-05-06 03:04
Airport Los Angeles International Airport (KLAX)

Arrival

Time 2026-05-06 03:59
Airport San Francisco International Airport (KSFO)
Time Latitude Longitude Altitude Speed Heading
2026-05-06 02:24 33.94102 -118.40140 92 ft 0 kts 265°
2026-05-06 02:53 33.94104 -118.40118 92 ft 4 kts 265°
2026-05-06 02:53 33.94106 -118.40089 92 ft 4 kts 233°
2026-05-06 02:53 33.94121 -118.40080 91 ft 1 kts 173°
2026-05-06 02:54 33.94104 -118.40077 95 ft 4 kts 173°
2026-05-06 02:54 33.94077 -118.40073 93 ft 4 kts 173°
2026-05-06 02:54 33.94051 -118.40069 93 ft 2 kts 173°
2026-05-06 02:54 33.94048 -118.40069 93 ft 0 kts 173°
2026-05-06 02:58 33.94047 -118.40069 93 ft 2 kts 173°
2026-05-06 02:58 33.93975 -118.40059 94 ft 12 kts 176°
2026-05-06 02:58 33.93951 -118.40096 94 ft 6 kts 256°
2026-05-06 02:59 33.93939 -118.40215 96 ft 24 kts 263°
2026-05-06 02:59 33.93921 -118.40433 93 ft 26 kts 264°
2026-05-06 02:59 33.93894 -118.40643 94 ft 27 kts 261°
2026-05-06 02:59 33.93874 -118.40863 92 ft 25 kts 264°
2026-05-06 03:00 33.93857 -118.41066 92 ft 24 kts 268°
2026-05-06 03:00 33.93957 -118.41175 92 ft 23 kts 353°
2026-05-06 03:00 33.94149 -118.41204 93 ft 34 kts 352°
2026-05-06 03:00 33.94382 -118.41241 93 ft 34 kts 354°
2026-05-06 03:01 33.94607 -118.41275 93 ft 31 kts 353°
2026-05-06 03:01 33.94786 -118.41250 95 ft 27 kts 60°
2026-05-06 03:01 33.94817 -118.41041 94 ft 25 kts 83°
2026-05-06 03:01 33.94837 -118.40841 94 ft 23 kts 82°
2026-05-06 03:02 33.94859 -118.40645 93 ft 29 kts 83°
2026-05-06 03:02 33.94885 -118.40389 93 ft 31 kts 83°
2026-05-06 03:02 33.94911 -118.40138 93 ft 29 kts 83°
2026-05-06 03:02 33.94962 -118.39921 93 ft 26 kts 34°
2026-05-06 03:03 33.95038 -118.40000 92 ft 17 kts 263°
2026-05-06 03:03 33.95020 -118.40179 97 ft 42 kts 263°
2026-05-06 03:03 33.94950 -118.40850 100 ft 116 kts 262°
2026-05-06 03:03 33.94825 -118.42040 220 ft 159 kts 262°
2026-05-06 03:04 33.94670 -118.43365 871 ft 164 kts 262°
2026-05-06 03:04 33.94521 -118.44719 1567 ft 171 kts 263°
2026-05-06 03:04 33.94382 -118.46243 1936 ft 196 kts 264°
2026-05-06 03:04 33.94302 -118.47982 2254 ft 216 kts 269°
2026-05-06 03:05 33.94250 -118.49837 2666 ft 234 kts 269°
2026-05-06 03:05 33.94172 -118.51870 3178 ft 248 kts 265°
2026-05-06 03:05 33.94007 -118.53973 3975 ft 257 kts 264°
2026-05-06 03:05 33.93826 -118.56149 4819 ft 263 kts 265°
2026-05-06 03:06 33.93645 -118.58365 5708 ft 267 kts 265°
2026-05-06 03:06 33.93468 -118.60581 6573 ft 270 kts 266°
2026-05-06 03:06 33.93288 -118.62856 7429 ft 274 kts 266°
2026-05-06 03:06 33.93105 -118.65179 8210 ft 280 kts 267°
2026-05-06 03:07 33.92925 -118.67515 8995 ft 287 kts 267°
2026-05-06 03:07 33.92738 -118.69925 9836 ft 291 kts 267°
2026-05-06 03:07 33.92548 -118.72374 10488 ft 301 kts 267°
2026-05-06 03:07 33.92346 -118.74995 10684 ft 327 kts 266°
2026-05-06 03:08 33.92128 -118.77805 11075 ft 343 kts 266°
2026-05-06 03:08 33.91900 -118.80694 11760 ft 349 kts 266°
2026-05-06 03:08 33.91679 -118.83612 12556 ft 352 kts 268°
2026-05-06 03:08 33.91668 -118.86574 13347 ft 356 kts 274°
2026-05-06 03:09 33.91806 -118.89574 14117 ft 361 kts 275°
2026-05-06 03:09 33.91949 -118.92572 14822 ft 365 kts 274°
2026-05-06 03:09 33.92064 -118.95648 15571 ft 370 kts 274°
2026-05-06 03:09 33.92161 -118.98773 16307 ft 375 kts 274°
2026-05-06 03:10 33.92506 -119.01885 17009 ft 376 kts 291°
2026-05-06 03:10 33.93677 -119.04687 17767 ft 375 kts 304°
2026-05-06 03:10 33.95088 -119.07345 18506 ft 379 kts 306°
2026-05-06 03:10 33.96532 -119.10034 19132 ft 384 kts 306°
2026-05-06 03:11 33.97969 -119.12758 19767 ft 388 kts 305°
2026-05-06 03:11 33.99409 -119.15536 20411 ft 393 kts 305°
2026-05-06 03:11 34.00907 -119.18301 21043 ft 394 kts 312°
2026-05-06 03:11 34.02936 -119.20478 21631 ft 391 kts 329°
2026-05-06 03:12 34.05200 -119.22362 22210 ft 397 kts 329°
2026-05-06 03:12 34.07480 -119.24267 22841 ft 401 kts 329°
2026-05-06 03:12 34.09744 -119.26177 23559 ft 401 kts 330°
2026-05-06 03:12 34.12028 -119.28120 24173 ft 403 kts 330°
2026-05-06 03:13 34.14328 -119.30088 24649 ft 408 kts 330°
2026-05-06 03:13 34.16653 -119.32086 25121 ft 412 kts 330°
2026-05-06 03:13 34.18999 -119.34106 25633 ft 416 kts 330°
2026-05-06 03:13 34.21360 -119.36145 26116 ft 419 kts 332°
2026-05-06 03:14 34.23744 -119.38205 26621 ft 422 kts 332°
2026-05-06 03:14 34.26138 -119.40273 27103 ft 425 kts 332°
2026-05-06 03:14 34.28560 -119.42367 27579 ft 429 kts 332°
2026-05-06 03:14 34.30995 -119.44474 28044 ft 432 kts 333°
2026-05-06 03:15 34.33449 -119.46599 28509 ft 435 kts 333°
2026-05-06 03:15 34.35922 -119.48744 28972 ft 438 kts 333°
2026-05-06 03:15 34.38398 -119.50892 29547 ft 438 kts 333°
2026-05-06 03:15 34.40870 -119.53041 30232 ft 434 kts 334°
2026-05-06 03:16 34.43286 -119.55202 30934 ft 429 kts 332°
2026-05-06 03:16 34.45607 -119.57376 31577 ft 425 kts 330°
2026-05-06 03:16 34.47930 -119.59588 32072 ft 425 kts 330°
2026-05-06 03:16 34.50259 -119.61811 32549 ft 425 kts 330°
2026-05-06 03:17 34.52576 -119.64019 33110 ft 422 kts 329°
2026-05-06 03:17 34.54877 -119.66203 33707 ft 419 kts 329°
2026-05-06 03:17 34.57174 -119.68378 34021 ft 421 kts 329°
2026-05-06 03:18 34.61815 -119.72765 34013 ft 422 kts 329°
2026-05-06 03:18 34.66403 -119.77127 34029 ft 416 kts 329°
2026-05-06 03:19 34.70978 -119.81446 34026 ft 417 kts 329°
2026-05-06 03:19 34.75525 -119.85818 34015 ft 417 kts 331°
2026-05-06 03:20 34.82383 -119.92281 34035 ft 419 kts 330°
2026-05-06 03:20 34.86984 -119.96682 34039 ft 420 kts 330°
2026-05-06 03:21 34.91600 -120.01079 34055 ft 421 kts 330°
2026-05-06 03:21 34.96213 -120.05485 34066 ft 419 kts 332°
2026-05-06 03:22 35.00739 -120.09960 34044 ft 420 kts 332°
2026-05-06 03:22 35.05389 -120.14276 34061 ft 421 kts 331°
2026-05-06 03:23 35.10013 -120.18713 34076 ft 423 kts 330°
2026-05-06 03:23 35.14651 -120.23176 34062 ft 423 kts 332°
2026-05-06 03:24 35.19311 -120.27608 34067 ft 424 kts 331°
2026-05-06 03:24 35.23997 -120.31911 34077 ft 423 kts 332°
2026-05-06 03:25 35.28712 -120.36227 34052 ft 423 kts 332°
2026-05-06 03:25 35.33455 -120.40522 34048 ft 424 kts 332°
2026-05-06 03:26 35.38091 -120.44963 34065 ft 431 kts 323°
2026-05-06 03:26 35.42217 -120.50339 34075 ft 434 kts 320°
2026-05-06 03:27 35.46269 -120.55820 34072 ft 433 kts 321°
2026-05-06 03:27 35.50361 -120.61286 34089 ft 431 kts 321°
2026-05-06 03:28 35.54409 -120.66640 34081 ft 430 kts 321°
2026-05-06 03:28 35.58487 -120.72024 34092 ft 429 kts 321°
2026-05-06 03:29 35.62553 -120.77398 34080 ft 429 kts 321°
2026-05-06 03:29 35.66607 -120.82764 34090 ft 428 kts 321°
2026-05-06 03:30 35.70665 -120.88152 34080 ft 429 kts 321°
2026-05-06 03:30 35.74723 -120.93546 34080 ft 430 kts 321°
2026-05-06 03:31 35.78774 -120.98954 34087 ft 429 kts 321°
2026-05-06 03:31 35.82797 -121.04316 34079 ft 429 kts 321°
2026-05-06 03:32 35.86833 -121.09740 34077 ft 429 kts 321°
2026-05-06 03:32 35.90901 -121.15150 34094 ft 430 kts 321°
2026-05-06 03:33 35.94899 -121.20506 33758 ft 417 kts 321°
2026-05-06 03:33 35.96841 -121.23116 33411 ft 410 kts 321°
2026-05-06 03:33 35.98762 -121.25695 32986 ft 404 kts 321°
2026-05-06 03:34 36.00655 -121.28237 32539 ft 400 kts 321°
2026-05-06 03:34 36.02507 -121.30723 32102 ft 396 kts 321°
2026-05-06 03:34 36.04364 -121.33220 31674 ft 393 kts 321°
2026-05-06 03:34 36.06206 -121.35697 31242 ft 389 kts 322°
2026-05-06 03:35 36.08230 -121.37797 30756 ft 374 kts 335°
2026-05-06 03:35 36.10416 -121.39497 30326 ft 369 kts 336°
2026-05-06 03:35 36.12596 -121.41143 29862 ft 366 kts 337°
2026-05-06 03:35 36.14757 -121.42778 29404 ft 362 kts 336°
2026-05-06 03:36 36.16890 -121.44406 28984 ft 358 kts 336°
2026-05-06 03:36 36.19000 -121.46023 28561 ft 355 kts 336°
2026-05-06 03:36 36.21090 -121.47640 28133 ft 352 kts 335°
2026-05-06 03:36 36.23154 -121.49245 27742 ft 349 kts 335°
2026-05-06 03:37 36.25209 -121.50848 27334 ft 346 kts 335°
2026-05-06 03:37 36.27240 -121.52433 26928 ft 344 kts 335°
2026-05-06 03:37 36.29258 -121.54009 26541 ft 341 kts 335°
2026-05-06 03:37 36.31258 -121.55574 26153 ft 339 kts 335°
2026-05-06 03:38 36.33247 -121.57131 25779 ft 338 kts 335°
2026-05-06 03:38 36.35233 -121.58686 25386 ft 337 kts 335°
2026-05-06 03:38 36.37183 -121.60214 25018 ft 335 kts 335°
2026-05-06 03:38 36.39176 -121.61777 24626 ft 334 kts 335°
2026-05-06 03:39 36.41110 -121.63295 24246 ft 332 kts 334°
2026-05-06 03:39 36.43062 -121.64829 23870 ft 331 kts 334°
2026-05-06 03:39 36.45009 -121.66358 23435 ft 331 kts 334°
2026-05-06 03:39 36.46956 -121.67889 23018 ft 329 kts 334°
2026-05-06 03:40 36.48883 -121.69407 22618 ft 326 kts 334°
2026-05-06 03:40 36.50799 -121.70913 22115 ft 328 kts 333°
2026-05-06 03:40 36.52085 -121.71926 21844 ft 328 kts 333°
2026-05-06 03:40 36.54003 -121.73443 21450 ft 326 kts 333°
2026-05-06 03:41 36.55908 -121.74951 21063 ft 324 kts 333°
2026-05-06 03:41 36.57800 -121.76449 20664 ft 321 kts 333°
2026-05-06 03:41 36.59683 -121.77940 20302 ft 319 kts 333°
2026-05-06 03:41 36.61529 -121.79403 19951 ft 316 kts 332°
2026-05-06 03:42 36.63379 -121.80868 19579 ft 314 kts 332°
2026-05-06 03:42 36.65214 -121.82323 19241 ft 312 kts 332°
2026-05-06 03:42 36.67041 -121.83773 18902 ft 310 kts 332°
2026-05-06 03:42 36.68858 -121.85214 18557 ft 308 kts 332°
2026-05-06 03:43 36.70664 -121.86648 18174 ft 306 kts 332°
2026-05-06 03:43 36.72456 -121.88072 17801 ft 304 kts 332°
2026-05-06 03:43 36.74263 -121.89411 17425 ft 298 kts 341°
2026-05-06 03:43 36.76225 -121.90100 17131 ft 290 kts 351°
2026-05-06 03:44 36.78190 -121.90623 16753 ft 288 kts 351°
2026-05-06 03:44 36.80115 -121.91131 16417 ft 286 kts 351°
2026-05-06 03:44 36.82055 -121.91651 16081 ft 283 kts 351°
2026-05-06 03:44 36.83974 -121.92174 15748 ft 282 kts 351°
2026-05-06 03:45 36.85888 -121.92701 15374 ft 281 kts 351°
2026-05-06 03:45 36.87804 -121.93232 14995 ft 281 kts 351°
2026-05-06 03:45 36.89710 -121.93764 14654 ft 280 kts 351°
2026-05-06 03:45 36.91613 -121.94296 14315 ft 279 kts 351°
2026-05-06 03:46 36.93508 -121.94826 13973 ft 278 kts 351°
2026-05-06 03:46 36.95392 -121.95365 13607 ft 278 kts 348°
2026-05-06 03:46 36.97246 -121.96035 13234 ft 277 kts 346°
2026-05-06 03:46 36.99084 -121.96761 12891 ft 276 kts 346°
2026-05-06 03:47 37.00906 -121.97489 12548 ft 274 kts 346°
2026-05-06 03:47 37.02692 -121.98201 12219 ft 272 kts 346°
2026-05-06 03:47 37.04492 -121.98914 11904 ft 271 kts 346°
2026-05-06 03:47 37.06285 -121.99621 11579 ft 270 kts 346°
2026-05-06 03:48 37.08072 -122.00323 11258 ft 268 kts 346°
2026-05-06 03:48 37.09843 -122.01018 10931 ft 267 kts 346°
2026-05-06 03:48 37.11618 -122.01713 10617 ft 266 kts 346°
2026-05-06 03:48 37.13379 -122.02403 10307 ft 264 kts 346°
2026-05-06 03:49 37.15121 -122.03085 10117 ft 258 kts 346°
2026-05-06 03:49 37.16809 -122.03748 9942 ft 253 kts 346°
2026-05-06 03:49 37.18510 -122.04411 9623 ft 259 kts 346°
2026-05-06 03:49 37.20253 -122.05091 9290 ft 265 kts 346°
2026-05-06 03:50 37.22011 -122.05782 8983 ft 264 kts 345°
2026-05-06 03:50 37.23765 -122.06471 8648 ft 264 kts 345°
2026-05-06 03:50 37.25526 -122.07160 8318 ft 263 kts 345°
2026-05-06 03:50 37.27272 -122.07846 8012 ft 263 kts 345°
2026-05-06 03:51 37.29021 -122.08535 7670 ft 263 kts 344°
2026-05-06 03:51 37.30772 -122.09224 7322 ft 264 kts 344°
2026-05-06 03:51 37.32522 -122.09914 6989 ft 264 kts 344°
2026-05-06 03:51 37.34270 -122.10602 6644 ft 264 kts 344°
2026-05-06 03:52 37.36004 -122.11286 6290 ft 264 kts 343°
2026-05-06 03:52 37.37756 -122.11975 5930 ft 264 kts 344°
2026-05-06 03:52 37.39516 -122.12594 5604 ft 262 kts 346°
2026-05-06 03:52 37.41272 -122.13186 5293 ft 261 kts 346°
2026-05-06 03:53 37.43023 -122.13778 4968 ft 260 kts 345°
2026-05-06 03:53 37.44770 -122.14373 4644 ft 258 kts 345°
2026-05-06 03:53 37.46503 -122.14966 4323 ft 257 kts 344°
2026-05-06 03:53 37.48203 -122.15549 4013 ft 256 kts 343°
2026-05-06 03:54 37.49895 -122.16130 3688 ft 248 kts 343°
2026-05-06 03:54 37.51527 -122.16690 3458 ft 236 kts 342°
2026-05-06 03:54 37.53023 -122.17337 3195 ft 218 kts 324°
2026-05-06 03:54 37.53923 -122.18671 3090 ft 192 kts 297°
2026-05-06 03:55 37.54564 -122.20076 2851 ft 178 kts 298°
2026-05-06 03:55 37.55142 -122.21383 2617 ft 164 kts 296°
2026-05-06 03:55 37.55665 -122.22620 2414 ft 161 kts 296°
2026-05-06 03:55 37.56186 -122.23868 2185 ft 159 kts 296°
2026-05-06 03:56 37.56696 -122.25093 1962 ft 156 kts 296°
2026-05-06 03:56 37.57192 -122.26284 1761 ft 150 kts 296°
2026-05-06 03:56 37.57654 -122.27392 1553 ft 137 kts 295°
2026-05-06 03:56 37.58094 -122.28449 1384 ft 139 kts 296°
2026-05-06 03:57 37.58545 -122.29532 1162 ft 138 kts 296°
2026-05-06 03:57 37.58989 -122.30595 983 ft 136 kts 296°
2026-05-06 03:57 37.59428 -122.31648 805 ft 138 kts 296°
2026-05-06 03:57 37.59870 -122.32705 616 ft 134 kts 295°
2026-05-06 03:58 37.60301 -122.33738 421 ft 133 kts 296°
2026-05-06 03:58 37.60735 -122.34780 267 ft 135 kts 295°
2026-05-06 03:58 37.61171 -122.35832 67 ft 133 kts 295°
2026-05-06 03:58 37.61582 -122.36828 23 ft 117 kts 299°
2026-05-06 03:59 37.61864 -122.37493 21 ft 56 kts 297°
2026-05-06 03:59 37.61985 -122.37821 23 ft 30 kts 277°
2026-05-06 03:59 37.61951 -122.37934 21 ft 0 kts 204°
2026-05-06 03:59 37.61950 -122.37934 21 ft 1 kts 204°
2026-05-06 04:00 37.61931 -122.37944 22 ft 6 kts 194°
2026-05-06 04:00 37.61869 -122.37909 22 ft 18 kts 143°
2026-05-06 04:00 37.61799 -122.37771 21 ft 19 kts 112°
2026-05-06 04:00 37.61748 -122.37617 21 ft 19 kts 112°
2026-05-06 04:01 37.61696 -122.37469 21 ft 18 kts 128°
2026-05-06 04:01 37.61583 -122.37473 22 ft 17 kts 208°
2026-05-06 04:01 37.61478 -122.37544 21 ft 17 kts 208°
2026-05-06 04:01 37.61377 -122.37614 21 ft 16 kts 209°
2026-05-06 04:02 37.61299 -122.37717 22 ft 17 kts 245°
2026-05-06 04:02 37.61296 -122.37830 23 ft 12 kts 300°
2026-05-06 04:02 37.61337 -122.37920 23 ft 12 kts 297°
2026-05-06 04:02 37.61380 -122.38029 23 ft 16 kts 296°
2026-05-06 04:03 37.61379 -122.38152 21 ft 16 kts 213°
2026-05-06 04:03 37.61361 -122.38267 21 ft 9 kts 279°
2026-05-06 04:03 37.61340 -122.38336 21 ft 8 kts 263°
2026-05-06 04:03 37.61341 -122.38356 21 ft 0 kts 271°